Regional Weather Roundup
Issued by NWS

Home | Current Version | Previous Version | Text Only | Print | Product List | Glossary On
Versions: 1 2 3 4 5 6 7 8 9 10 11 12 13 14 15 16 17 18 19 20 21 22 23 24 25 26 27 28 29 30 31 32 33 34 35 36 37 38 39 40 41 42 43 44 45 46 47 48 49 50
000
ASUS43 KLOT 200210
RWRIL

ILLINOIS REGIONAL WEATHER ROUNDUP
NATIONAL WEATHER SERVICE CHICAGO/ROMEOVILLE IL
900 PM CDT FRI SEP 19 2014

NOTE: "FAIR" INDICATES FEW OR NO CLOUDS BELOW 12,000 FEET WITH NO
SIGNIFICANT WEATHER AND/OR OBSTRUCTIONS TO VISIBILITY.

* THESE STATIONS ARE NOT UNDER NWS QUALITY CONTROL. THEY ALSO MAY NOT
  REPORT WEATHER SUCH AS PRECIPITATION OR FOG.

ILZ001-002-007-009-015-016-024-200300-
NORTHWEST ILLINOIS

CITY           SKY/WX    TMP DP  RH WIND       PRES   REMARKS
MOLINE         CLEAR     67  54  63 S8        29.93S
STERLING*      CLEAR     63  54  72 S5        29.95S
SAVANNA*       CLEAR     67  54  62 S9        29.92S
$$

ILZ003-004-008-010-011-017-018-200300-
NORTH CENTRAL ILLINOIS

CITY           SKY/WX    TMP DP  RH WIND       PRES   REMARKS
ROCKFORD       PTCLDY    64  50  60 S14       29.96R
FREEPORT*      CLEAR     63  55  75 S10       29.94S
ROCHELLE*      PTCLDY    61  50  68 S9        29.95F
DE KALB*       PTCLDY    57  49  74 S10       29.97F
PERU*          PTCLDY    64  50  61 S12       29.98F
$$

ILZ005-006-012>014-019>023-200300-
NORTHEAST ILLINOIS

CITY           SKY/WX    TMP DP  RH WIND       PRES   REMARKS
CHICAGO-OHARE  PTCLDY    65  46  50 S12       29.98F
CHICAGO-MIDWAY MOCLDY    69  48  47 S9        29.99F
AURORA         CLEAR     60  48  64 S8        29.99S
LANSING*       PTCLDY    59  49  70 S7        30.02R
JOLIET*        CLEAR     63  47  57 S6        30.01S
WAUKEGAN       CLEAR     66  46  48 S14       29.94F
DUPAGE AIRPORT CLEAR     62  48  60 S9        29.97F
KANKAKEE*      CLEAR     59  50  72 S6        30.03S
WHEELING       CLEAR     67  47  48 S15       29.98F
MORRIS*        CLEAR     62  52  70 S8        30.00S
ROMEOVILLE*    CLEAR     59  49  70 S9        30.00F
NORTHERLY ISL    N/A     66  47  50 SE8         N/A
$$

LMZ740>746-200300-
SOUTHERN LAKE MICHIGAN

STATION/POSITION SKY/WX   TEMP    WIND        PRES    VSBY  WAVE
                          AIR SEA DIR/SP/G                  HT/PER
                          (F)     (DEG/KT/KT) (MB)    (MI)  (FT/S)
SOUTHERN BUOY              66 64  170/ 17/ 21 1014.5F         2/ 4
WAUKEGAN HARBOR            64     190/ 13/ 14   N/A
HARRISON CRIB              67     180/ 17/ 18   N/A
BURNHAM HARBOR             66     170/  6/ 12   N/A
CALUMET HARBOR             67     170/  8/ 10 1014.9S
MICHIGAN CITY              65     160/  9/ 12   N/A
MICHIGAN CITY 6N           65 65  180/ 10/ 12   N/A           1/ 2
ST. JOSEPH                 65 65  160/ 12/ 14   N/A           1/ 2
$$

ILZ025>027-034>036-040-047-049-050-058-095>099-200300-
WEST-CENTRAL ILLINOIS

CITY           SKY/WX    TMP DP  RH WIND       PRES   REMARKS
QUINCY         CLEAR     67  57  70 S8        29.98S
GALESBURG*     CLEAR     62  56  82 S7        29.97R
MACOMB*        CLEAR     61  56  84 S6        30.00S
JACKSONVILLE*  CLEAR     64  59  81 SE3       30.02S
PITTSFIELD*    CLEAR     64  58  81 CALM      30.01S
$$

ILZ028>032-037-038-041>044-048-051>054-059>061-200300-
CENTRAL ILLINOIS

CITY           SKY/WX    TMP DP  RH WIND       PRES   REMARKS
PONTIAC        CLEAR     61  52  72 S5        30.01S
DECATUR        CLEAR     61  52  72 S5        30.03S
PEORIA         CLEAR     66  54  65 S7        29.99F
LACON*         PTCLDY    62  53  71 CALM      29.98S
LINCOLN*       CLEAR     62  54  74 CALM      30.00R
SPRINGFIELD    CLEAR     64  54  69 S6        30.02R
TAYLORVILLE    CLEAR     61  54  77 SE6       30.02S
$$

ILZ033-039-045-046-055>057-062-063-200300-
EAST-CENTRAL ILLINOIS

CITY           SKY/WX    TMP DP  RH WIND       PRES   REMARKS
CHAMPAIGN      CLEAR     60  51  72 SE8       30.04S
DANVILLE*      CLEAR     59  51  76 SE5       30.02S
RANTOUL*       CLEAR     59  50  71 S3        30.05R
MATTOON        CLEAR     60  53  77 SE6       30.03S
PARIS*         CLEAR     55  53  94 CALM      30.06S
$$

ILZ079-100>102-200300-
SOUTHWEST ILLINOIS

CITY           SKY/WX    TMP DP  RH WIND       PRES   REMARKS
ALTON          CLEAR     63  59  88 E6        30.01
BELLEVILLE     CLEAR     64  61  93 CALM      30.02R
CAHOKIA*       CLEAR     64  60  87 SE5       30.01R
SPARTA*        CLEAR     62  59  92 CALM      30.04R
$$

ILZ064>066-069>071-074>076-080>082-084>086-088>090-092>094-200300-
SOUTH-CENTRAL ILLINOIS

CITY           SKY/WX    TMP DP  RH WIND       PRES   REMARKS
CARBONDALE     CLEAR     60  58  92 CALM      30.03R
CAIRO*           N/A     66  62  87 CALM      30.02R FOG
EFFINGHAM*     CLEAR     58  55  89 CALM      30.04S
MARION         CLEAR     64  61  88 CALM      30.04R
MT. VERNON     CLEAR     57  52  82 CALM      30.04S
CENTRALIA*     CLEAR     58  55  91 CALM      30.04R
SALEM*         CLEAR     59  58  96 CALM      30.05R FOG
METROPOLIS*    CLEAR     63  62  98 CALM      30.01S
$$

ILZ067-068-072-073-078-083-087-091-200300-
SOUTHEAST ILLINOIS

CITY           SKY/WX    TMP DP  RH WIND       PRES   REMARKS
LAWRENCEVILLE  CLEAR     61  56  83 E6        30.05R
FLORA*         CLEAR     59  57  92 CALM      30.04S
FAIRFIELD*     CLEAR    N/A N/A N/A CALM      30.04R
HARRISBURG*    CLEAR     62  61  96 CALM      30.04R
ROBINSON*      CLEAR     59  57  94 CALM      30.06R
CARMI*         CLEAR     62  59  91 NE5       30.03R
$$

ABBREVIATIONS USED IN REMARKS
   TC - TEMPERATURE IN CELSIUS
  WCI - WIND CHILL INDEX
   HX - HEAT INDEX
  VSB - VISIBILITY
$$




USA.gov is the U.S. government's official web portal to all federal, state and local government web resources and services.